�������l�o���
Date,Time,MP-1(��Sv/h),MP-2(��Sv/h),MP-3(��Sv/h),MP-4(��Sv/h),MP-5(��Sv/h),MP-6(��Sv/h),MP-7(��Sv/h),MP-8(��Sv/h),����,����(m/s),���J
2024/01/20,00:00,0.519,0.790,0.490,1.004,0.714,0.315,0.564,0.526,�k�k��,4.7,��
2024/01/20,00:10,0.521,0.790,0.490,1.000,0.711,0.313,0.565,0.526,�k�k��,4.9,��
2024/01/20,00:20,0.520,0.788,0.489,1.004,0.712,0.316,0.564,0.527,�k�k��,4.9,��
2024/01/20,00:30,0.520,0.789,0.490,1.001,0.713,0.314,0.563,0.525,�k�k��,5.1,��
2024/01/20,00:40,0.518,0.787,0.489,1.004,0.712,0.314,0.564,0.526,�k�k��,5.6,��
2024/01/20,00:50,0.521,0.789,0.489,1.002,0.712,0.314,0.563,0.527,�k�k��,6.1,��
2024/01/20,01:00,0.519,0.789,0.492,1.003,0.713,0.313,0.564,0.527,�k�k��,5.7,��
2024/01/20,01:10,0.520,0.788,0.491,1.002,0.713,0.315,0.565,0.527,�k�k��,5.7,��
2024/01/20,01:20,0.520,0.787,0.491,1.003,0.713,0.315,0.564,0.526,�k��,5.2,��
2024/01/20,01:30,0.521,0.787,0.489,1.003,0.712,0.315,0.563,0.527,�k�k��,4.8,��
2024/01/20,01:40,0.518,0.787,0.491,1.003,0.713,0.315,0.562,0.526,�k�k��,5.4,��
2024/01/20,01:50,0.519,0.788,0.490,1.002,0.713,0.313,0.563,0.527,�k�k��,6.0,��
2024/01/20,02:00,0.520,0.790,0.491,1.003,0.713,0.314,0.564,0.524,�k�k��,6.1,��
2024/01/20,02:10,0.519,0.788,0.491,1.003,0.713,0.314,0.564,0.527,�k�k��,6.1,��
2024/01/20,02:20,0.520,0.789,0.491,1.003,0.714,0.314,0.563,0.526,�k�k��,6.7,��
2024/01/20,02:30,0.521,0.787,0.491,1.003,0.714,0.313,0.564,0.528,�k�k��,6.8,��
2024/01/20,02:40,0.520,0.789,0.491,1.001,0.713,0.315,0.563,0.527,�k�k��,6.3,��
2024/01/20,02:50,0.520,0.788,0.490,1.003,0.712,0.314,0.563,0.527,�k�k��,5.7,��
2024/01/20,03:00,0.520,0.788,0.490,1.002,0.711,0.313,0.564,0.527,�k��,6.6,��
2024/01/20,03:10,0.518,0.788,0.490,1.004,0.712,0.314,0.563,0.525,�k��,6.4,��
2024/01/20,03:20,0.520,0.787,0.490,1.004,0.713,0.314,0.563,0.526,�k�k��,5.3,��
2024/01/20,03:30,0.520,0.788,0.490,1.001,0.712,0.314,0.563,0.527,�k�k��,6.3,��
2024/01/20,03:40,0.519,0.788,0.490,1.003,0.711,0.315,0.564,0.526,�k��,5.6,��
2024/01/20,03:50,0.518,0.787,0.489,1.005,0.710,0.314,0.563,0.525,�k�k��,5.6,��
2024/01/20,04:00,0.519,0.788,0.490,1.004,0.712,0.315,0.563,0.527,�k��,6.5,��
2024/01/20,04:10,0.520,0.789,0.490,1.003,0.713,0.315,0.562,0.526,�k��,5.6,��
2024/01/20,04:20,0.519,0.787,0.489,1.004,0.711,0.314,0.563,0.527,�k�k��,6.6,��
2024/01/20,04:30,0.519,0.787,0.491,1.002,0.711,0.315,0.563,0.527,�k�k��,6.5,��
2024/01/20,04:40,0.519,0.786,0.492,1.003,0.710,0.314,0.564,0.526,�k�k��,6.7,��
2024/01/20,04:50,0.520,0.787,0.490,1.004,0.711,0.314,0.565,0.527,�k��,6.1,��
2024/01/20,05:00,0.520,0.788,0.490,1.002,0.711,0.314,0.563,0.526,�k��,6.9,��
2024/01/20,05:10,0.519,0.788,0.490,1.003,0.710,0.315,0.563,0.524,�k��,6.1,��
2024/01/20,05:20,0.519,0.788,0.490,1.002,0.713,0.314,0.563,0.527,�k��,6.2,��
2024/01/20,05:30,0.522,0.786,0.491,1.002,0.711,0.314,0.562,0.528,�k��,5.9,��
2024/01/20,05:40,0.520,0.788,0.492,1.003,0.711,0.313,0.562,0.528,�k��,6.2,��
2024/01/20,05:50,0.520,0.788,0.491,1.002,0.710,0.314,0.564,0.527,�k��,5.9,��
2024/01/20,06:00,0.520,0.787,0.489,1.004,0.712,0.313,0.565,0.527,���k��,5.7,��
2024/01/20,06:10,0.520,0.790,0.489,1.001,0.711,0.313,0.565,0.526,�k��,6.1,��
2024/01/20,06:20,0.520,0.788,0.490,1.003,0.711,0.314,0.564,0.526,�k��,6.5,��
2024/01/20,06:30,0.520,0.787,0.489,1.005,0.711,0.314,0.564,0.527,�k��,6.0,��
2024/01/20,06:40,0.520,0.788,0.489,1.003,0.710,0.313,0.563,0.528,�k�k��,5.9,��
2024/01/20,06:50,0.519,0.788,0.490,1.003,0.712,0.313,0.563,0.528,�k��,6.4,��
2024/01/20,07:00,0.520,0.789,0.490,1.004,0.714,0.313,0.565,0.527,�k��,6.5,��
2024/01/20,07:10,0.519,0.788,0.490,1.004,0.711,0.312,0.563,0.526,�k��,5.6,��
2024/01/20,07:20,0.519,0.787,0.490,1.003,0.709,0.313,0.563,0.527,�k��,6.3,��
2024/01/20,07:30,0.520,0.787,0.490,1.002,0.711,0.314,0.564,0.526,�k��,6.4,��
2024/01/20,07:40,0.520,0.790,0.491,1.004,0.711,0.314,0.563,0.526,�k��,6.0,��
2024/01/20,07:50,0.520,0.789,0.489,1.003,0.710,0.313,0.563,0.527,�k��,6.5,��
2024/01/20,08:00,0.519,0.789,0.490,1.004,0.710,0.314,0.564,0.527,�k��,7.0,��
2024/01/20,08:10,0.519,0.787,0.490,1.004,0.712,0.314,0.565,0.527,�k��,5.9,��
2024/01/20,08:20,0.520,0.789,0.489,1.001,0.711,0.313,0.564,0.527,�k��,5.5,��
2024/01/20,08:30,0.520,0.789,0.490,1.002,0.711,0.313,0.566,0.527,�k�k��,5.6,��
2024/01/20,08:40,0.521,0.789,0.490,1.002,0.713,0.314,0.564,0.527,�k�k��,6.2,��
2024/01/20,08:50,0.521,0.789,0.490,1.005,0.712,0.314,0.565,0.527,�k�k��,5.2,��
2024/01/20,09:00,0.521,0.788,0.492,1.003,0.712,0.314,0.566,0.526,�k�k��,5.1,��
2024/01/20,09:10,0.520,0.790,0.491,1.005,0.713,0.314,0.566,0.527,�k�k��,5.8,��
2024/01/20,09:20,0.520,0.789,0.491,1.003,0.714,0.315,0.566,0.527,�k��,5.9,��
2024/01/20,09:30,0.521,0.789,0.492,1.003,0.712,0.316,0.566,0.528,�k�k��,4.8,��
2024/01/20,09:40,0.522,0.789,0.490,1.006,0.713,0.314,0.566,0.529,�k��,4.2,��
2024/01/20,09:50,0.523,0.789,0.492,1.004,0.713,0.314,0.566,0.527,�k�k��,4.4,��
2024/01/20,10:00,0.521,0.789,0.490,1.002,0.713,0.314,0.565,0.527,�k�k��,5.0,��
2024/01/20,10:10,0.522,0.791,0.493,1.004,0.714,0.314,0.566,0.528,�k,4.1,��
2024/01/20,10:20,0.521,0.791,0.490,1.003,0.715,0.315,0.564,0.527,�k�k��,4.8,��
2024/01/20,10:30,0.522,0.789,0.492,1.003,0.713,0.314,0.563,0.529,�k�k��,5.5,��
2024/01/20,10:40,0.522,0.790,0.492,1.001,0.712,0.316,0.564,0.527,�k�k��,4.4,��
2024/01/20,10:50,0.520,0.789,0.490,1.005,0.713,0.314,0.564,0.528,�k�k��,3.2,��
2024/01/20,11:00,0.523,0.791,0.492,1.006,0.714,0.317,0.564,0.528,�k,3.5,��
2024/01/20,11:10,0.522,0.789,0.492,1.004,0.713,0.315,0.565,0.527,�k�k��,4.5,��
2024/01/20,11:20,0.522,0.790,0.494,1.003,0.713,0.315,0.563,0.527,�k,3.2,��
2024/01/20,11:30,0.521,0.790,0.493,1.004,0.713,0.315,0.565,0.529,�k�k��,3.6,��
2024/01/20,11:40,0.521,0.790,0.493,1.004,0.714,0.316,0.563,0.527,�k�k��,3.5,��
2024/01/20,11:50,0.523,0.789,0.491,1.003,0.715,0.314,0.565,0.528,�k�k��,3.5,��
2024/01/20,12:00,0.521,0.789,0.491,1.005,0.715,0.315,0.564,0.529,�k,3.6,��
2024/01/20,12:10,0.520,0.791,0.492,1.005,0.713,0.315,0.563,0.529,�k,3.5,��
2024/01/20,12:20,0.522,0.790,0.490,1.002,0.716,0.315,0.565,0.528,�k,4.3,��
2024/01/20,12:30,0.521,0.791,0.491,1.003,0.715,0.315,0.564,0.528,�k�k��,3.4,��
2024/01/20,12:40,0.522,0.791,0.492,1.004,0.715,0.314,0.562,0.529,�k�k��,3.7,��
2024/01/20,12:50,0.523,0.790,0.493,1.005,0.712,0.314,0.563,0.528,�k,4.2,��
2024/01/20,13:00,0.522,0.791,0.491,1.003,0.714,0.315,0.565,0.527,�k,3.6,��
2024/01/20,13:10,0.521,0.792,0.492,1.004,0.714,0.315,0.563,0.527,�k,4.3,��
2024/01/20,13:20,0.521,0.790,0.492,1.006,0.714,0.314,0.563,0.528,�k�k��,3.5,��
2024/01/20,13:30,0.521,0.790,0.493,1.005,0.716,0.315,0.562,0.527,�k�k��,4.1,��
2024/01/20,13:40,0.521,0.792,0.491,1.006,0.714,0.316,0.566,0.528,�k�k��,3.3,��
2024/01/20,13:50,0.522,0.788,0.491,1.004,0.713,0.315,0.565,0.527,�k�k��,3.9,��
2024/01/20,14:00,0.520,0.792,0.492,1.003,0.715,0.315,0.564,0.527,�k�k��,4.1,��
2024/01/20,14:10,0.521,0.789,0.493,1.003,0.714,0.315,0.566,0.527,�k��,3.3,��
2024/01/20,14:20,0.521,0.789,0.493,1.004,0.715,0.315,0.564,0.527,�k�k��,2.5,��
2024/01/20,14:30,0.522,0.788,0.492,1.005,0.713,0.316,0.566,0.527,�k�k��,2.6,��
2024/01/20,14:40,0.520,0.787,0.491,1.003,0.715,0.315,0.566,0.530,�k,2.5,��
2024/01/20,14:50,0.522,0.790,0.492,1.004,0.716,0.316,0.565,0.529,�k�k��,2.6,��
2024/01/20,15:00,0.521,0.790,0.494,1.005,0.715,0.315,0.566,0.529,�k�k��,2.3,��
2024/01/20,15:10,0.522,0.791,0.493,1.004,0.715,0.315,0.563,0.529,�k�k��,2.3,��
2024/01/20,15:20,0.522,0.789,0.493,1.005,0.715,0.315,0.564,0.529,�k�k��,1.9,��
2024/01/20,15:30,0.521,0.790,0.491,1.004,0.716,0.315,0.565,0.529,�k,2.3,��
2024/01/20,15:40,0.521,0.790,0.492,1.004,0.716,0.315,0.564,0.527,�k,1.5,��
2024/01/20,15:50,0.522,0.792,0.491,1.005,0.714,0.314,0.564,0.528,�k�k��,2.2,��
2024/01/20,16:00,0.521,0.790,0.492,1.005,0.716,0.315,0.565,0.526,�k,2.6,��
2024/01/20,16:10,0.520,0.789,0.494,1.005,0.715,0.314,0.563,0.527,�k,2.0,��
2024/01/20,16:20,0.521,0.790,0.492,1.004,0.715,0.316,0.565,0.528,�k�k��,2.3,��
2024/01/20,16:30,0.521,0.791,0.494,1.003,0.715,0.315,0.564,0.527,�k�k��,2.5,��
2024/01/20,16:40,0.521,0.790,0.493,1.005,0.714,0.314,0.565,0.528,�k�k��,1.9,��
2024/01/20,16:50,0.521,0.791,0.490,1.005,0.716,0.315,0.566,0.527,�k�k��,2.3,��
2024/01/20,17:00,0.520,0.790,0.493,1.005,0.714,0.316,0.564,0.527,�k�k��,2.5,��
2024/01/20,17:10,0.521,0.791,0.492,1.005,0.714,0.316,0.565,0.528,�k��,2.3,��
2024/01/20,17:20,0.522,0.790,0.491,1.006,0.714,0.314,0.566,0.528,�k��,2.3,��
2024/01/20,17:30,0.521,0.793,0.492,1.004,0.716,0.315,0.566,0.528,�k�k��,2.8,��
2024/01/20,17:40,0.522,0.789,0.492,1.005,0.713,0.316,0.565,0.528,�k�k��,2.6,��
2024/01/20,17:50,0.523,0.791,0.491,1.005,0.713,0.316,0.567,0.528,�k�k��,2.8,��
2024/01/20,18:00,0.521,0.789,0.491,1.005,0.715,0.315,0.565,0.526,�k��,3.1,��
2024/01/20,18:10,0.521,0.789,0.492,1.004,0.713,0.317,0.566,0.528,�k��,3.0,��
2024/01/20,18:20,0.522,0.791,0.493,1.004,0.716,0.316,0.566,0.527,�k��,2.9,��
2024/01/20,18:30,0.522,0.791,0.492,1.005,0.715,0.315,0.566,0.528,�k��,4.6,��
2024/01/20,18:40,0.521,0.790,0.492,1.000,0.712,0.316,0.565,0.528,�k��,4.7,��
2024/01/20,18:50,0.520,0.790,0.492,1.003,0.714,0.315,0.565,0.527,�k��,4.2,��
2024/01/20,19:00,0.521,0.792,0.492,1.006,0.715,0.315,0.566,0.527,�k��,4.3,��
2024/01/20,19:10,0.522,0.790,0.492,1.003,0.714,0.316,0.566,0.529,�k��,4.3,��
2024/01/20,19:20,0.521,0.789,0.492,1.005,0.715,0.316,0.567,0.527,�k��,3.8,��
2024/01/20,19:30,0.521,0.790,0.492,1.004,0.716,0.315,0.565,0.529,�k��,5.0,��
2024/01/20,19:40,0.522,0.792,0.492,1.006,0.715,0.315,0.565,0.527,�k��,5.3,��
2024/01/20,19:50,0.521,0.790,0.491,1.005,0.715,0.314,0.566,0.528,�k��,5.1,��
2024/01/20,20:00,0.520,0.793,0.492,1.004,0.713,0.315,0.566,0.528,�k��,4.9,��
2024/01/20,20:10,0.523,0.793,0.491,1.006,0.716,0.316,0.566,0.529,�k��,4.5,��
2024/01/20,20:20,0.521,0.792,0.493,1.005,0.714,0.316,0.566,0.529,�k��,5.0,��
2024/01/20,20:30,0.523,0.788,0.493,1.005,0.716,0.316,0.566,0.528,�k��,4.8,��
2024/01/20,20:40,0.521,0.790,0.492,1.003,0.715,0.316,0.567,0.529,�k��,6.1,�L
2024/01/20,20:50,0.523,0.792,0.493,1.005,0.713,0.315,0.566,0.528,�k��,5.7,�L
2024/01/20,21:00,0.522,0.790,0.494,1.007,0.715,0.315,0.567,0.528,�k��,4.9,�L
2024/01/20,21:10,0.523,0.791,0.493,1.004,0.714,0.316,0.567,0.528,�k��,5.4,�L
2024/01/20,21:20,0.522,0.790,0.494,1.007,0.715,0.316,0.566,0.529,�k��,4.9,�L
2024/01/20,21:30,0.523,0.791,0.493,1.006,0.714,0.316,0.568,0.527,�k��,5.4,�L
2024/01/20,21:40,0.523,0.792,0.495,1.006,0.715,0.317,0.567,0.528,�k��,5.3,�L
2024/01/20,21:50,0.521,0.791,0.496,1.005,0.717,0.317,0.568,0.529,�k��,5.4,�L
2024/01/20,22:00,0.524,0.790,0.493,1.004,0.715,0.316,0.568,0.530,�k��,5.2,�L
2024/01/20,22:10,0.525,0.792,0.494,1.005,0.717,0.317,0.568,0.529,�k��,6.1,�L
2024/01/20,22:20,0.524,0.793,0.495,1.005,0.716,0.317,0.567,0.529,�k��,5.0,�L
2024/01/20,22:30,0.524,0.793,0.496,1.008,0.716,0.318,0.570,0.530,�k��,5.7,�L
2024/01/20,22:40,0.524,0.792,0.495,1.008,0.716,0.318,0.568,0.529,�k�k��,6.5,�L
2024/01/20,22:50,0.524,0.791,0.493,1.004,0.715,0.317,0.570,0.527,�k�k��,5.7,�L
2024/01/20,23:00,0.523,0.792,0.496,1.005,0.715,0.318,0.569,0.528,�k�k��,7.3,�L
2024/01/20,23:10,0.524,0.793,0.495,1.006,0.717,0.320,0.569,0.528,�k�k��,7.8,�L
2024/01/20,23:20,0.523,0.792,0.497,1.006,0.715,0.320,0.569,0.529,�k�k��,8.4,�L
2024/01/20,23:30,0.524,0.794,0.494,1.007,0.714,0.319,0.567,0.529,�k�k��,7.3,�L
2024/01/20,23:40,0.525,0.790,0.496,1.007,0.717,0.318,0.567,0.529,�k��,7.5,�L
2024/01/20,23:50,0.523,0.791,0.494,1.006,0.716,0.318,0.567,0.528,�k��,7.7,�L
